International Skating Union - Official Site

ESSENT ISU WORLD ALLROUND CHAMPIONSHIPS 2012
February 18-19, 2012

Draw | Lap Times | Index | Classification

Referee: Jan  AUGUSTINUS  (NED)
Starter: Garth  LINDER  (USA)
StartTime: EndTime: Air Temp: Ice Temp: Humidity:
18:09 19:55 15.5℃ -6.0℃ 35.0%
Result 10000m Men
Rankings as of Feb 19 2012 7:56PM
Rank: No.: Name: Nation: Time: Behind: Points:
1 65 Sven  KRAMER NED NED 13:08.76400m - 34.79 - (34.7)
800m - 1:05.63 - (30.8)
1200m - 1:37.34 - (31.7)
1600m - 2:08.63 - (31.2)
2000m - 2:40.07 - (31.4)
2400m - 3:11.33 - (31.2)
2800m - 3:43.24 - (31.9)
3200m - 4:14.56 - (31.3)
3600m - 4:46.17 - (31.6)
4000m - 5:17.53 - (31.3)
4400m - 5:49.28 - (31.7)
4800m - 6:20.62 - (31.3)
5200m - 6:52.23 - (31.6)
5600m - 7:23.50 - (31.2)
6000m - 7:55.32 - (31.8)
6400m - 8:26.56 - (31.2)
6800m - 8:58.05 - (31.4)
7200m - 9:29.27 - (31.2)
7600m - 10:00.84 - (31.5)
8000m - 10:32.02 - (31.1)
8400m - 11:03.46 - (31.4)
8800m - 11:34.62 - (31.1)
9200m - 12:05.90 - (31.2)
9600m - 12:37.20 - (31.3)
10000m - 13:08.76 - (31.5)
39.438
2 64 Jan  BLOKHUIJSEN NED NED 13:12.31400m - 34.40 - (34.3)
800m - 1:05.48 - (31.0)
1200m - 1:36.61 - (31.1)
1600m - 2:08.23 - (31.6)
2000m - 2:39.87 - (31.6)
2400m - 3:11.51 - (31.6)
2800m - 3:42.75 - (31.2)
3200m - 4:14.71 - (31.9)
3600m - 4:46.24 - (31.5)
4000m - 5:17.91 - (31.6)
4400m - 5:49.23 - (31.3)
4800m - 6:20.95 - (31.7)
5200m - 6:52.20 - (31.2)
5600m - 7:24.00 - (31.8)
6000m - 7:55.37 - (31.3)
6400m - 8:27.14 - (31.7)
6800m - 8:58.55 - (31.4)
7200m - 9:30.25 - (31.7)
7600m - 10:01.80 - (31.5)
8000m - 10:33.44 - (31.6)
8400m - 11:04.99 - (31.5)
8800m - 11:36.77 - (31.7)
9200m - 12:08.63 - (31.8)
9600m - 12:40.48 - (31.8)
10000m - 13:12.31 - (31.8)
3.55 39.615
3 76 Ivan  SKOBREV RUS RUS 13:13.16400m - 36.43 - (36.4)
800m - 1:08.12 - (31.6)
1200m - 1:40.09 - (31.9)
1600m - 2:12.18 - (32.0)
2000m - 2:43.91 - (31.7)
2400m - 3:15.53 - (31.6)
2800m - 3:47.07 - (31.5)
3200m - 4:18.75 - (31.6)
3600m - 4:50.68 - (31.9)
4000m - 5:22.50 - (31.8)
4400m - 5:54.28 - (31.7)
4800m - 6:26.16 - (31.8)
5200m - 6:58.01 - (31.8)
5600m - 7:29.93 - (31.9)
6000m - 8:01.74 - (31.8)
6400m - 8:33.51 - (31.7)
6800m - 9:05.05 - (31.5)
7200m - 9:36.63 - (31.5)
7600m - 10:07.96 - (31.3)
8000m - 10:39.46 - (31.5)
8400m - 11:11.18 - (31.7)
8800m - 11:41.84 - (30.6)
9200m - 12:12.26 - (30.4)
9600m - 12:42.61 - (30.3)
10000m - 13:13.16 - (30.5)
4.40 39.658
4 69 Håvard  BØKKO NOR NOR 13:16.75400m - 35.24 - (35.2)
800m - 1:06.72 - (31.4)
1200m - 1:38.22 - (31.5)
1600m - 2:09.80 - (31.5)
2000m - 2:41.54 - (31.7)
2400m - 3:13.21 - (31.6)
2800m - 3:45.04 - (31.8)
3200m - 4:16.75 - (31.7)
3600m - 4:48.55 - (31.8)
4000m - 5:20.36 - (31.8)
4400m - 5:52.19 - (31.8)
4800m - 6:24.01 - (31.8)
5200m - 6:55.84 - (31.8)
5600m - 7:27.41 - (31.5)
6000m - 7:59.04 - (31.6)
6400m - 8:30.62 - (31.5)
6800m - 9:02.18 - (31.5)
7200m - 9:33.61 - (31.4)
7600m - 10:05.25 - (31.6)
8000m - 10:36.75 - (31.5)
8400m - 11:08.41 - (31.6)
8800m - 11:40.14 - (31.7)
9200m - 12:11.93 - (31.7)
9600m - 12:44.24 - (32.3)
10000m - 13:16.75 - (32.5)
7.99 39.837
5 66 Koen  VERWEIJ NED NED 13:17.31400m - 35.11 - (35.1)
800m - 1:06.37 - (31.2)
1200m - 1:38.35 - (31.9)
1600m - 2:10.28 - (31.9)
2000m - 2:41.90 - (31.6)
2400m - 3:13.47 - (31.5)
2800m - 3:45.35 - (31.8)
3200m - 4:17.11 - (31.7)
3600m - 4:48.80 - (31.6)
4000m - 5:20.49 - (31.6)
4400m - 5:52.09 - (31.5)
4800m - 6:23.79 - (31.7)
5200m - 6:55.52 - (31.7)
5600m - 7:27.35 - (31.8)
6000m - 7:59.06 - (31.7)
6400m - 8:30.91 - (31.8)
6800m - 9:02.79 - (31.8)
7200m - 9:34.68 - (31.8)
7600m - 10:06.59 - (31.9)
8000m - 10:38.50 - (31.9)
8400m - 11:10.38 - (31.8)
8800m - 11:42.19 - (31.8)
9200m - 12:14.06 - (31.8)
9600m - 12:46.00 - (31.9)
10000m - 13:17.31 - (31.3)
8.55 39.865
6 78 Jonathan  KUCK USA USA 13:30.88400m - 36.49 - (36.4)
800m - 1:08.77 - (32.2)
1200m - 1:41.49 - (32.7)
1600m - 2:14.13 - (32.6)
2000m - 2:46.74 - (32.6)
2400m - 3:19.46 - (32.7)
2800m - 3:52.26 - (32.7)
3200m - 4:25.05 - (32.7)
3600m - 4:57.64 - (32.5)
4000m - 5:30.49 - (32.8)
4400m - 6:03.36 - (32.8)
4800m - 6:36.70 - (33.3)
5200m - 7:09.76 - (33.0)
5600m - 7:42.55 - (32.7)
6000m - 8:14.89 - (32.3)
6400m - 8:46.93 - (32.0)
6800m - 9:18.77 - (31.8)
7200m - 9:50.43 - (31.6)
7600m - 10:21.99 - (31.5)
8000m - 10:53.45 - (31.4)
8400m - 11:24.99 - (31.5)
8800m - 11:56.53 - (31.5)
9200m - 12:28.14 - (31.6)
9600m - 12:59.59 - (31.4)
10000m - 13:30.88 - (31.2)
22.12 40.544
7 70 Sverre  LUNDE PEDERSEN NOR NOR 13:43.01400m - 36.49 - (36.4)
800m - 1:08.89 - (32.3)
1200m - 1:41.75 - (32.8)
1600m - 2:14.32 - (32.5)
2000m - 2:46.94 - (32.6)
2400m - 3:19.61 - (32.6)
2800m - 3:52.51 - (32.8)
3200m - 4:25.40 - (32.8)
3600m - 4:58.31 - (32.9)
4000m - 5:31.24 - (32.9)
4400m - 6:04.49 - (33.2)
4800m - 6:37.38 - (32.8)
5200m - 7:11.07 - (33.6)
5600m - 7:43.99 - (32.9)
6000m - 8:16.92 - (32.9)
6400m - 8:49.84 - (32.9)
6800m - 9:22.78 - (32.9)
7200m - 9:55.69 - (32.9)
7600m - 10:28.42 - (32.7)
8000m - 11:01.21 - (32.7)
8400m - 11:34.00 - (32.7)
8800m - 12:06.62 - (32.6)
9200m - 12:38.97 - (32.3)
9600m - 13:11.04 - (32.0)
10000m - 13:43.01 - (31.9)
34.25 41.150
8 62 Haralds  SILOVS LAT LAT 13:43.66400m - 35.68 - (35.6)
800m - 1:08.57 - (32.8)
1200m - 1:42.05 - (33.4)
1600m - 2:15.18 - (33.1)
2000m - 2:48.17 - (32.9)
2400m - 3:21.07 - (32.9)
2800m - 3:54.11 - (33.0)
3200m - 4:27.08 - (32.9)
3600m - 4:59.75 - (32.6)
4000m - 5:32.70 - (32.9)
4400m - 6:05.45 - (32.7)
4800m - 6:38.39 - (32.9)
5200m - 7:11.18 - (32.7)
5600m - 7:43.75 - (32.5)
6000m - 8:16.35 - (32.6)
6400m - 8:49.08 - (32.7)
6800m - 9:21.61 - (32.5)
7200m - 9:54.10 - (32.4)
7600m - 10:26.58 - (32.4)
8000m - 10:59.04 - (32.4)
8400m - 11:31.44 - (32.4)
8800m - 12:04.07 - (32.6)
9200m - 12:37.36 - (33.2)
9600m - 13:10.66 - (33.2)
10000m - 13:43.66 - (32.9)
34.90 41.183
9 51 Bart  SWINGS BEL BEL 13:46.23400m - 37.13 - (37.1)
800m - 1:10.60 - (33.4)
1200m - 1:43.74 - (33.1)
1600m - 2:17.03 - (33.2)
2000m - 2:50.38 - (33.3)
2400m - 3:23.93 - (33.5)
2800m - 3:57.18 - (33.2)
3200m - 4:30.41 - (33.2)
3600m - 5:03.56 - (33.1)
4000m - 5:36.87 - (33.3)
4400m - 6:10.04 - (33.1)
4800m - 6:43.40 - (33.3)
5200m - 7:16.34 - (32.9)
5600m - 7:49.41 - (33.0)
6000m - 8:22.30 - (32.8)
6400m - 8:55.19 - (32.8)
6800m - 9:27.81 - (32.6)
7200m - 10:00.27 - (32.4)
7600m - 10:32.82 - (32.5)
8000m - 11:05.10 - (32.2)
8400m - 11:37.23 - (32.1)
8800m - 12:09.33 - (32.1)
9200m - 12:41.64 - (32.3)
9600m - 13:14.07 - (32.4)
10000m - 13:46.23 - (32.1)
37.47 41.311
10 58 Patrick  BECKERT GER GER 13:47.32400m - 36.99 - (36.9)
800m - 1:09.93 - (32.9)
1200m - 1:43.14 - (33.2)
1600m - 2:16.36 - (33.2)
2000m - 2:49.79 - (33.4)
2400m - 3:23.19 - (33.4)
2800m - 3:56.71 - (33.5)
3200m - 4:30.05 - (33.3)
3600m - 5:03.59 - (33.5)
4000m - 5:36.69 - (33.1)
4400m - 6:10.04 - (33.3)
4800m - 6:43.18 - (33.1)
5200m - 7:16.57 - (33.3)
5600m - 7:49.58 - (33.0)
6000m - 8:22.56 - (32.9)
6400m - 8:55.26 - (32.6)
6800m - 9:28.12 - (32.8)
7200m - 10:00.96 - (32.8)
7600m - 10:34.08 - (33.1)
8000m - 11:07.30 - (33.2)
8400m - 11:40.66 - (33.3)
8800m - 12:13.50 - (32.8)
9200m - 12:45.96 - (32.4)
9600m - 13:17.25 - (31.2)
10000m - 13:47.32 - (30.0)
38.56 41.366
11 72 Zbigniew  BRODKA POL POL 14:11.40400m - 38.14 - (38.1)
800m - 1:12.22 - (34.0)
1200m - 1:45.60 - (33.3)
1600m - 2:20.05 - (34.4)
2000m - 2:53.49 - (33.4)
2400m - 3:27.48 - (33.9)
2800m - 4:01.28 - (33.8)
3200m - 4:35.83 - (34.5)
3600m - 5:09.57 - (33.7)
4000m - 5:44.07 - (34.5)
4400m - 6:18.40 - (34.3)
4800m - 6:52.49 - (34.0)
5200m - 7:26.71 - (34.2)
5600m - 8:00.56 - (33.8)
6000m - 8:33.94 - (33.3)
6400m - 9:07.43 - (33.4)
6800m - 9:40.86 - (33.4)
7200m - 10:14.49 - (33.6)
7600m - 10:47.94 - (33.4)
8000m - 11:21.67 - (33.7)
8400m - 11:55.45 - (33.7)
8800m - 12:29.49 - (34.0)
9200m - 13:03.38 - (33.8)
9600m - 13:37.48 - (34.1)
10000m - 14:11.40 - (33.9)
62.64 42.570
12 73 Konrad  NIEDZWIEDZKI POL POL 14:25.67400m - 38.68 - (38.6)
800m - 1:12.29 - (33.6)
1200m - 1:45.97 - (33.6)
1600m - 2:19.52 - (33.5)
2000m - 2:53.61 - (34.0)
2400m - 3:27.45 - (33.8)
2800m - 4:01.69 - (34.2)
3200m - 4:35.93 - (34.2)
3600m - 5:10.45 - (34.5)
4000m - 5:44.93 - (34.4)
4400m - 6:19.25 - (34.3)
4800m - 6:53.62 - (34.3)
5200m - 7:28.26 - (34.6)
5600m - 8:02.77 - (34.5)
6000m - 8:37.25 - (34.4)
6400m - 9:11.50 - (34.2)
6800m - 9:46.05 - (34.5)
7200m - 10:20.95 - (34.9)
7600m - 10:56.11 - (35.1)
8000m - 11:31.15 - (35.0)
8400m - 12:05.88 - (34.7)
8800m - 12:41.17 - (35.2)
9200m - 13:16.48 - (35.3)
9600m - 13:51.30 - (34.8)
10000m - 14:25.67 - (34.3)
76.91 43.283